Location: Unspecified
(0.0000°N, 0.0000°E)
Time: 21:05:12
(UTC+00:00)

Tandem-X - Visible Passes

Search period start: 23 July 2024 00:00
Search period end: 02 August 2024 00:00
Orbit: 507 x 509 km, 97.4° (Epoch: 23 July)

Date Brightness Start Highest point End Pass type
(mag) Time Alt. Az. Time Alt. Az. Time Alt. Az.
23 Jul 6.8 05:37:22 10° NNE 05:40:50 38° ESE 05:44:19 10° S visible
24 Jul 7.9 05:21:00 10° NE 05:23:48 20° ESE 05:26:37 10° SSE visible
24 Jul 8.2 18:46:52 10° SW 18:48:59 15° WSW 18:51:06 10° WNW visible
25 Jul 8.4 05:05:40 10° E 05:06:47 11° ESE 05:07:53 10° ESE visible
25 Jul 7.5 18:28:46 10° SSW 18:31:58 27° W 18:35:07 10° NW visible
29 Jul 7.4 05:28:59 10° NE 05:32:11 27° ESE 05:35:23 10° SSE visible
29 Jul 8.5 18:56:26 10° WSW 18:57:20 11° WSW 18:58:15 10° W visible
30 Jul 8.2 05:12:56 10° ENE 05:15:07 15° ESE 05:17:19 10° SE visible
30 Jul 8.0 18:37:31 10° SSW 18:40:16 20° WSW 18:43:02 10° NW visible
